Storm Lake, IA

11:14 AM CST on November 22, 2017 (GMT -0600)
Storm Lake Municipal

Weather History for KSLB - January, 2014

Change the Weather History Date:

Sunday, January 5, 2014

  Actual Average Record
Temperature  
Mean Temperature -6 °F -  
Max Temperature 3 °F 27 °F 57 °F (2012)
Min Temperature -14 °F 12 °F -14 °F (2014)
Degree Days  
Heating Degree Days 70    
Moisture  
Dew Point -16 °F    
Average Humidity 57    
Maximum Humidity 72    
Minimum Humidity 45    
Precipitation  
Precipitation 0.00 in - - ()
Sea Level Pressure  
Sea Level Pressure 30.31 in    
Wind  
Wind Speed 21 mph (NNW)    
Max Wind Speed 33 mph    
Max Gust Speed 40 mph    
Visibility 10 miles    
Events      
Averages and records for this station are not official NWS values.
T = Trace of Precipitation, MM = Missing Value Source: NWS Daily Summary

Daily Weather History Graph

Daily Weather History Graph

Search for Another Location

Airport or City:

Trip Planner

Search our weather history database for the weather conditions in past years. The results will help you decide how hot, cold, wet, or windy it might be!

Date:

Astronomy

Jan. 05, 2014 Rise Set
Actual Time 7:51 AM CST 5:02 PM CST
Civil Twilight 7:19 AM CST 5:33 PM CST
Nautical Twilight 6:43 AM CST 6:09 PM CST
Astronomical Twilight 6:09 AM CST 6:43 PM CST
Moon 10:26 AM CST (1/5) 10:38 PM CST (1/5)
Length of Visible Light 10h 14m
Length of Day
9h 11m
Waxing Crescent, 25% of the Moon is Illuminated
Jan 5
Waxing Crescent
Jan 7
First Quarter
Jan 15
Full
Jan 23
Last Quarter
Jan 30
New

Hourly Weather History & Observations

Time (CST) Temp. Windchill Dew Point Humidity Pressure Visibility Wind Dir Wind Speed Gust Speed Precip Events Conditions
12:15 AM 3.2 °F -16.5 °F -5.8 °F 66% 30.19 in 10.0 mi North 17.3 mph 25.3 mph N/A   Mostly Cloudy
12:35 AM 1.4 °F -19.9 °F -5.8 °F 72% 30.20 in 10.0 mi North 19.6 mph 27.6 mph N/A   Overcast
12:55 AM 1.4 °F -18.8 °F -5.8 °F 72% 30.20 in 10.0 mi North 17.3 mph - N/A   Overcast
1:15 AM 1.4 °F -19.9 °F -7.6 °F 66% 30.21 in 10.0 mi North 19.6 mph 27.6 mph N/A   Overcast
1:35 AM 1.4 °F -18.8 °F -7.6 °F 66% 30.21 in 10.0 mi North 17.3 mph 24.2 mph N/A   Mostly Cloudy
1:55 AM -0.4 °F -22.3 °F -7.6 °F 72% 30.21 in 10.0 mi North 19.6 mph - N/A   Partly Cloudy
2:15 AM -0.4 °F -22.8 °F -7.6 °F 72% 30.21 in 10.0 mi North 20.7 mph - N/A   Clear
2:35 AM -0.4 °F -22.3 °F -11.2 °F 60% 30.23 in 10.0 mi North 19.6 mph 28.8 mph N/A   Scattered Clouds
2:55 AM -0.4 °F -20.5 °F -11.2 °F 60% 30.23 in 10.0 mi North 16.1 mph 27.6 mph N/A   Mostly Cloudy
3:15 AM -2.2 °F -25.2 °F -11.2 °F 66% 30.24 in 10.0 mi North 20.7 mph - N/A   Mostly Cloudy
3:35 AM -2.2 °F -24.7 °F -11.2 °F 66% 30.23 in 10.0 mi North 19.6 mph - N/A   Overcast
3:55 AM -2.2 °F -25.2 °F -11.2 °F 66% 30.23 in 10.0 mi North 20.7 mph - N/A   Overcast
4:15 AM -2.2 °F -25.2 °F -11.2 °F 66% 30.24 in 10.0 mi North 20.7 mph - N/A   Overcast
4:35 AM -2.2 °F -25.2 °F -13.0 °F 60% 30.24 in 10.0 mi North 20.7 mph 27.6 mph N/A   Overcast
4:55 AM -2.2 °F -23.5 °F -13.0 °F 60% 30.24 in 10.0 mi North 17.3 mph - N/A   Overcast
5:15 AM -4.0 °F -26.4 °F -13.0 °F 65% 30.26 in 10.0 mi North 18.4 mph 25.3 mph N/A   Mostly Cloudy
5:35 AM -4.0 °F -26.4 °F -13.0 °F 65% 30.27 in 10.0 mi North 18.4 mph 24.2 mph N/A   Scattered Clouds
5:55 AM -4.0 °F -25.8 °F -13.0 °F 65% 30.27 in 10.0 mi North 17.3 mph - N/A   Mostly Cloudy
6:15 AM -4.0 °F -25.8 °F -14.8 °F 60% 30.27 in 10.0 mi North 17.3 mph 24.2 mph N/A   Scattered Clouds
6:35 AM -4.0 °F -25.2 °F -14.8 °F 60% 30.28 in 10.0 mi North 16.1 mph - N/A   Scattered Clouds
6:55 AM -4.0 °F -28.1 °F -14.8 °F 60% 30.29 in 10.0 mi North 21.9 mph 27.6 mph N/A   Mostly Cloudy
7:15 AM -4.0 °F -24.5 °F -14.8 °F 60% 30.29 in 10.0 mi North 15.0 mph - N/A   Mostly Cloudy
7:35 AM -5.8 °F -28.2 °F -16.6 °F 60% 30.29 in 10.0 mi North 17.3 mph 23.0 mph N/A   Scattered Clouds
7:55 AM -5.8 °F -26.0 °F -16.6 °F 60% 30.31 in 10.0 mi North 13.8 mph - N/A   Clear
8:15 AM -5.8 °F -24.4 °F -16.6 °F 60% 30.31 in 10.0 mi North 11.5 mph - N/A   Clear
8:35 AM -5.8 °F -26.8 °F -18.4 °F 55% 30.31 in 10.0 mi North 15.0 mph - N/A   Clear
8:55 AM -5.8 °F -26.0 °F -16.6 °F 60% 30.32 in 10.0 mi North 13.8 mph - N/A   Clear
9:15 AM -5.8 °F -27.5 °F -16.6 °F 60% 30.32 in 10.0 mi NNW 16.1 mph - N/A   Clear
9:35 AM -4.0 °F -25.8 °F -14.8 °F 60% 30.32 in 10.0 mi NNW 17.3 mph - N/A   Clear
9:55 AM -4.0 °F -27.6 °F -14.8 °F 60% 30.32 in 10.0 mi NNW 20.7 mph - N/A   Clear
10:15 AM -2.2 °F -24.7 °F -14.8 °F 55% 30.32 in 10.0 mi NNW 19.6 mph 25.3 mph N/A   Clear
10:35 AM -2.2 °F -25.7 °F -13.0 °F 60% 30.32 in 10.0 mi NNW 21.9 mph 27.6 mph N/A   Clear
10:55 AM -0.4 °F -21.7 °F -13.0 °F 55% 30.33 in 10.0 mi NNW 18.4 mph 31.1 mph N/A   Clear
11:15 AM -0.4 °F -24.3 °F -11.2 °F 60% 30.32 in 10.0 mi NW 24.2 mph 31.1 mph N/A   Clear
11:35 AM 1.4 °F -21.9 °F -9.4 °F 61% 30.32 in 10.0 mi NNW 24.2 mph - N/A   Clear
11:55 AM 1.4 °F -23.2 °F -11.2 °F 56% 30.31 in 10.0 mi NNW 27.6 mph 33.4 mph N/A   Clear
12:15 PM 1.4 °F -23.9 °F -9.4 °F 61% 30.30 in 10.0 mi NNW 29.9 mph 35.7 mph N/A   Clear
12:35 PM 3.2 °F -21.1 °F -9.4 °F 56% 30.30 in 10.0 mi NW 28.8 mph - N/A   Partly Cloudy
12:55 PM 1.4 °F -23.9 °F -11.2 °F 56% 30.29 in 10.0 mi NNW 29.9 mph 36.8 mph N/A   Clear
1:15 PM 1.4 °F -23.5 °F -9.4 °F 61% 30.29 in 10.0 mi NNW 28.8 mph 35.7 mph N/A   Clear
1:35 PM 1.4 °F -22.3 °F -11.2 °F 56% 30.30 in 10.0 mi NW 25.3 mph 36.8 mph N/A   Clear
1:55 PM -0.4 °F -25.6 °F -13.0 °F 55% 30.30 in 10.0 mi NW 27.6 mph 33.4 mph N/A   Clear
2:15 PM 1.4 °F -25.0 °F -13.0 °F 51% 30.31 in 10.0 mi NW 33.4 mph 40.3 mph N/A   Partly Cloudy
2:35 PM -0.4 °F -26.7 °F -13.0 °F 55% 30.31 in 7.0 mi NNW 31.1 mph 39.1 mph N/A   Light Freezing Rain
2:55 PM -0.4 °F -26.0 °F -11.2 °F 60% 30.32 in 9.0 mi NNW 28.8 mph - N/A   Partly Cloudy
3:15 PM -2.2 °F -26.7 °F -14.8 °F 55% 30.32 in 10.0 mi NW 24.2 mph 32.2 mph N/A   Clear
3:35 PM -2.2 °F -26.2 °F -14.8 °F 55% 30.33 in 10.0 mi NNW 23.0 mph 28.8 mph N/A   Clear
3:55 PM -2.2 °F -27.6 °F -16.6 °F 50% 30.34 in 10.0 mi NNW 26.5 mph 36.8 mph N/A   Clear
4:15 PM -2.2 °F -27.6 °F -16.6 °F 50% 30.35 in 10.0 mi NNW 26.5 mph 32.2 mph N/A   Partly Cloudy
4:35 PM -4.0 °F -27.6 °F -18.4 °F 50% 30.35 in 10.0 mi NNW 20.7 mph 33.4 mph N/A   Partly Cloudy
4:55 PM -5.8 °F -31.5 °F -20.2 °F 50% 30.35 in 10.0 mi NW 24.2 mph 32.2 mph N/A   Clear
5:15 PM -5.8 °F -32.4 °F -20.2 °F 50% 30.36 in 10.0 mi NNW 26.5 mph 35.7 mph N/A   Partly Cloudy
5:35 PM -7.6 °F -33.9 °F -22.0 °F 50% 30.37 in 10.0 mi NW 24.2 mph 35.7 mph N/A   Partly Cloudy
5:55 PM -7.6 °F -33.9 °F -22.0 °F 50% 30.37 in 10.0 mi NW 24.2 mph 33.4 mph N/A   Clear
6:15 PM -7.6 °F -33.9 °F -22.0 °F 50% 30.38 in 10.0 mi NW 24.2 mph 32.2 mph N/A   Mostly Cloudy
6:35 PM -9.4 °F -37.3 °F -23.8 °F 49% 30.38 in 10.0 mi NNW 26.5 mph 35.7 mph N/A   Overcast
6:55 PM -9.4 °F -37.7 °F -25.6 °F 45% 30.39 in 10.0 mi NW 27.6 mph 34.5 mph N/A   Scattered Clouds
7:15 PM -11.2 °F -36.4 °F -25.6 °F 49% 30.39 in 10.0 mi NW 19.6 mph 34.5 mph N/A   Scattered Clouds
7:35 PM -11.2 °F -41.5 °F -27.4 °F 45% 30.39 in 10.0 mi NW 31.1 mph 40.3 mph N/A   Mostly Cloudy
7:55 PM -13.0 °F -42.6 °F -27.4 °F 49% 30.39 in 10.0 mi NW 27.6 mph 35.7 mph N/A   Clear
8:15 PM -13.0 °F -40.6 °F -27.4 °F 49% 30.39 in 10.0 mi NW 23.0 mph 34.5 mph N/A   Partly Cloudy
8:35 PM -13.0 °F -40.0 °F -25.6 °F 53% 30.39 in 10.0 mi NW 21.9 mph 33.4 mph N/A   Mostly Cloudy
8:55 PM -13.0 °F -42.1 °F -27.4 °F 49% 30.39 in 10.0 mi NW 26.5 mph 33.4 mph N/A   Mostly Cloudy
9:15 PM -13.0 °F -42.1 °F -27.4 °F 49% 30.39 in 10.0 mi NW 26.5 mph 34.5 mph N/A   Mostly Cloudy
9:35 PM -13.0 °F -42.1 °F -27.4 °F 49% 30.38 in 10.0 mi NW 26.5 mph 35.7 mph N/A   Mostly Cloudy
9:55 PM -14.8 °F -42.4 °F -27.4 °F 53% 30.38 in 10.0 mi NW 21.9 mph 35.7 mph N/A   Mostly Cloudy
10:15 PM -14.8 °F -42.4 °F -27.4 °F 53% 30.37 in 10.0 mi NW 21.9 mph 32.2 mph N/A   Mostly Cloudy
10:35 PM -14.8 °F -43.5 °F -27.4 °F 53% 30.37 in 10.0 mi NW 24.2 mph 32.2 mph N/A   Mostly Cloudy
10:55 PM -14.8 °F -44.5 °F -27.4 °F 53% 30.36 in 10.0 mi NW 26.5 mph 36.8 mph N/A   Mostly Cloudy
11:15 PM -14.8 °F -42.9 °F -27.4 °F 53% 30.36 in 10.0 mi NW 23.0 mph 34.5 mph N/A   Mostly Cloudy
11:35 PM -14.8 °F -44.0 °F -27.4 °F 53% 30.35 in 10.0 mi NW 25.3 mph - N/A   Overcast
11:55 PM -14.8 °F -42.9 °F -27.4 °F 53% 30.34 in 10.0 mi NW 23.0 mph 31.1 mph N/A   Overcast